Location: Albuquerque Trailhead
(34.7934°N, 106.3736°W)
Time: 18:50:02
(UTC+00:00)

Tiangong - Visible Passes

Search period start: 08 December 2022 00:00
Search period end: 18 December 2022 00:00
Orbit: 386 x 392 km, 41.5° (Epoch: 08 December)

Date Brightness Start Highest point End Pass type
(mag) Time Alt. Az. Time Alt. Az. Time Alt. Az.
08 Dec -0.7 00:26:24 10° NW 00:29:05 24° N 00:31:42 10° ENE visible
08 Dec 0.7 02:03:15 10° WNW 02:04:01 16° NW 02:04:01 16° NW visible
09 Dec -1.4 01:05:07 10° NW 01:08:08 38° NNE 01:08:50 33° NE visible
10 Dec -1.1 01:43:43 10° WNW 01:46:05 45° W 01:46:05 45° W visible
11 Dec -2.1 00:45:27 10° WNW 00:48:36 63° NNE 00:51:08 15° ESE visible
11 Dec 1.3 02:22:57 10° W 02:23:30 13° WSW 02:23:30 13° WSW visible
12 Dec -0.6 01:24:11 10° W 01:27:07 35° SSW 01:28:47 20° SSE visible
13 Dec -1.8 00:25:40 10° WNW 00:28:49 68° SSW 00:31:58 10° SE visible
14 Dec 0.8 01:04:53 10° W 01:07:05 17° SW 01:09:18 10° S visible
